7 * 24
多渠道服务支持
Hi!有什么问题可以问我哦~
STARLINK-36612是美国太空探索技术公司(SpaceX)于2026年1月25日发射的星链(Starlink)系列卫星。星链项目旨在构建低地球轨道卫星互联网星座,为全球尤其是偏远、网络覆盖薄弱地区提供高速低延迟宽带互联网服务,STARLINK-36612的入轨进一步扩充了星链星座规模,助力全球卫星互联网络布局完善,推动星链服务覆盖范围与服务能力提升。
美国
(US)
| 数据来源 | 国际轨道数据 |
| 星历时间: | 2026-04-04T04:00:02+0800 5小时前 查看轨道信息 |
| 半长轴: | 6843.697km |
| 偏心率: | 0.0001997 |
| 轨道倾角: | 97.288° |
| 近地点辐角 | 88.713° |
| 升交点赤经 | 154.990° |
| 平近点角 | 283.676° |
| 近地点: | 464.193km |
| 远地点: | 466.927km |
| 周期: | 93.907分钟 |
| 每日圈数: | 15.334394 |